Weather History for Chippewa, MI

Change the Weather History Date:

Monday, November 24, 2014

  Actual Average Record
Temperature  
Mean Temperature 36 °F -  
Max Temperature 42 °F 37 °F 53 °F (2003)
Min Temperature 30 °F 19 °F 1 °F (2005)
Degree Days  
Heating Degree Days 29    
Moisture  
Dew Point 38 °F    
Average Humidity 100    
Maximum Humidity 100    
Minimum Humidity 93    
Precipitation  
Precipitation 0.85 in - - ()
Sea Level Pressure  
Sea Level Pressure 29.06 in    
Wind  
Wind Speed 11 mph (West)    
Max Wind Speed 18 mph    
Max Gust Speed 21 mph    
Visibility 7 miles    
Events      
Averages and records for this station are not official NWS values.
T = Trace of Precipitation, MM = Missing Value Source: NWS Daily Summary

Daily Weather History Graph

Daily Weather History Graph

Search for Another Location

Airport:

Trip Planner

Search our weather history database for the weather conditions in past years. The results will help you decide how hot, cold, wet, or windy it might be!

Date:

Astronomy

Nov. 24, 2014 Rise Set
Actual Time 7:51 AM EST 4:57 PM EST
Civil Twilight 7:17 AM EST 5:30 PM EST
Nautical Twilight 6:40 AM EST 6:07 PM EST
Astronomical Twilight 6:05 AM EST 6:43 PM EST
Moon 9:42 AM EST (11/24) 7:19 PM EST (11/24)
Length of Visible Light 10h 12m
Length of Day
9h 06m
Waxing Crescent, 6% of the Moon is Illuminated
Nov 24
Waxing Crescent
Nov 29
First Quarter
Dec 6
Full
Dec 14
Last Quarter
Dec 21
New

Hourly Weather History & Observations

Time (EST) Temp. Windchill Dew Point Humidity Pressure Visibility Wind Dir Wind Speed Gust Speed Precip Events Conditions
12:15 AM 41.0 °F 34.3 °F 41.0 °F 100% 29.28 in 3.0 mi East 11.5 mph - 0.04 in   Overcast
12:35 AM 41.0 °F 33.5 °F 41.0 °F 100% 29.26 in 5.0 mi East 13.8 mph - 0.07 in   Overcast
12:55 AM 41.0 °F 33.1 °F 41.0 °F 100% 29.24 in 7.0 mi East 15.0 mph - 0.10 in   Overcast
1:15 AM 41.0 °F 33.1 °F 41.0 °F 100% 29.22 in 8.0 mi East 15.0 mph - 0.05 in   Overcast
1:35 AM 41.0 °F 33.1 °F 41.0 °F 100% 29.20 in 7.0 mi ESE 15.0 mph - 0.10 in   Overcast
1:55 AM 41.0 °F 32.2 °F 41.0 °F 100% 29.17 in 8.0 mi East 18.4 mph - 0.15 in   Overcast
2:15 AM 41.0 °F 33.9 °F 41.0 °F 100% 29.15 in 10.0 mi East 12.7 mph - 0.04 in   Overcast
2:35 AM 41.0 °F 34.7 °F 41.0 °F 100% 29.13 in 8.0 mi East 10.4 mph - 0.10 in   Overcast
2:55 AM 41.0 °F 33.5 °F 41.0 °F 100% 29.10 in 9.0 mi East 13.8 mph - 0.14 in   Overcast
3:15 AM 41.0 °F 33.9 °F 41.0 °F 100% 29.07 in 9.0 mi East 12.7 mph - 0.03 in   Overcast
3:35 AM 41.0 °F 33.1 °F 41.0 °F 100% 29.05 in 10.0 mi East 15.0 mph 18.4 mph 0.06 in   Overcast
3:55 AM 41.0 °F 33.5 °F 41.0 °F 100% 29.02 in 9.0 mi East 13.8 mph 20.7 mph 0.09 in   Overcast
4:35 AM 41.0 °F 32.8 °F 41.0 °F 100% 28.98 in 8.0 mi East 16.1 mph 20.7 mph 0.04 in   Overcast
4:55 AM 41.0 °F 32.8 °F 41.0 °F 100% 28.96 in 9.0 mi East 16.1 mph - 0.07 in   Overcast
5:15 AM 39.2 °F 30.5 °F 39.2 °F 100% 28.95 in 10.0 mi East 16.1 mph - 0.02 in   Overcast
5:35 AM 39.2 °F 32.0 °F 39.2 °F 100% 28.93 in 10.0 mi East 11.5 mph - 0.04 in   Overcast
5:55 AM 39.2 °F 32.0 °F 39.2 °F 100% 28.92 in 10.0 mi East 11.5 mph - 0.05 in   Overcast
6:15 AM 39.2 °F 32.5 °F 39.2 °F 100% 28.90 in 8.0 mi East 10.4 mph - 0.02 in   Overcast
6:35 AM 39.2 °F 33.0 °F 39.2 °F 100% 28.89 in 8.0 mi East 9.2 mph - 0.03 in   Overcast
6:55 AM 39.2 °F 34.2 °F 39.2 °F 100% 28.88 in 7.0 mi ESE 6.9 mph - 0.05 in   Overcast
7:15 AM 39.2 °F 35.0 °F 39.2 °F 100% 28.88 in 6.0 mi ESE 5.8 mph - 0.01 in   Overcast
7:35 AM 39.2 °F 35.0 °F 39.2 °F 100% 28.87 in 6.0 mi ESE 5.8 mph - 0.02 in   Overcast
7:55 AM 39.2 °F - 39.2 °F 100% 28.88 in 0.2 mi Calm Calm - 0.03 in   Overcast
8:15 AM 37.4 °F 33.8 °F 37.4 °F 100% 28.88 in 0.2 mi West 4.6 mph - 0.01 in   Overcast
8:35 AM 39.2 °F 35.9 °F 39.2 °F 100% 28.88 in 0.2 mi West 4.6 mph - 0.03 in   Overcast
8:55 AM 39.2 °F 35.0 °F 39.2 °F 100% 28.89 in 0.2 mi West 5.8 mph - 0.04 in   Overcast
9:15 AM 39.2 °F 34.2 °F 39.2 °F 100% 28.89 in 0.5 mi West 6.9 mph - 0.01 in   Overcast
9:35 AM 39.2 °F 34.2 °F 39.2 °F 100% 28.89 in 0.5 mi West 6.9 mph - N/A   Overcast
9:55 AM 39.2 °F 35.0 °F 39.2 °F 100% 28.90 in 0.5 mi West 5.8 mph - 0.03 in   Overcast
10:15 AM 39.2 °F 35.0 °F 39.2 °F 100% 28.91 in 0.8 mi West 5.8 mph - 0.03 in   Overcast
10:35 AM 39.2 °F 33.6 °F 39.2 °F 100% 28.92 in 1.5 mi West 8.1 mph - 0.04 in   Overcast
10:55 AM 39.2 °F 33.6 °F 39.2 °F 100% 28.93 in 7.0 mi WSW 8.1 mph - 0.04 in   Overcast
11:15 AM 39.2 °F 33.0 °F 39.2 °F 100% 28.93 in 10.0 mi WSW 9.2 mph - N/A   Overcast
11:35 AM 41.0 °F 36.4 °F 41.0 °F 100% 28.94 in 10.0 mi WSW 6.9 mph - N/A   Overcast
11:55 AM 41.0 °F 35.8 °F 41.0 °F 100% 28.94 in 10.0 mi WSW 8.1 mph - 0.01 in   Overcast
12:15 PM 41.0 °F 35.8 °F 41.0 °F 100% 28.94 in 10.0 mi WSW 8.1 mph - N/A   Overcast
12:35 PM 42.8 °F 39.3 °F 42.8 °F 100% 28.94 in 10.0 mi WSW 5.8 mph - N/A   Overcast
12:55 PM 42.8 °F 39.3 °F 42.8 °F 100% 28.94 in 10.0 mi WSW 5.8 mph - N/A   Overcast
1:15 PM 42.8 °F 39.3 °F 42.8 °F 100% 28.94 in 10.0 mi WSW 5.8 mph - N/A   Overcast
1:35 PM 42.8 °F 40.1 °F 42.8 °F 100% 28.96 in 10.0 mi WSW 4.6 mph - N/A   Overcast
1:55 PM 42.8 °F 38.6 °F 42.8 °F 100% 28.97 in 10.0 mi WSW 6.9 mph - N/A   Overcast
2:15 PM 42.8 °F 38.6 °F 42.8 °F 100% 28.98 in 10.0 mi West 6.9 mph - N/A   Overcast
2:35 PM 42.8 °F 37.5 °F 42.8 °F 100% 28.99 in 8.0 mi West 9.2 mph - N/A   Overcast
2:55 PM 41.0 °F 33.9 °F 41.0 °F 100% 29.00 in 7.0 mi West 12.7 mph 17.3 mph N/A   Overcast
3:15 PM 41.0 °F 33.5 °F 39.2 °F 93% 29.01 in 9.0 mi West 13.8 mph 18.4 mph N/A   Overcast
3:35 PM 39.2 °F 31.6 °F 39.2 °F 100% 29.03 in 4.0 mi West 12.7 mph 17.3 mph N/A   Overcast
3:55 PM 39.2 °F 32.5 °F 39.2 °F 100% 29.04 in 3.0 mi WNW 10.4 mph - N/A   Overcast
4:15 PM 39.2 °F 31.6 °F 39.2 °F 100% 29.05 in 10.0 mi WNW 12.7 mph 19.6 mph N/A   Overcast
4:35 PM 37.4 °F 28.9 °F 37.4 °F 100% 29.07 in 10.0 mi WNW 13.8 mph 19.6 mph N/A   Overcast
4:55 PM 37.4 °F 29.8 °F 37.4 °F 100% 29.08 in 10.0 mi WNW 11.5 mph - N/A   Overcast
5:15 PM 37.4 °F 29.8 °F 37.4 °F 100% 29.09 in 10.0 mi WNW 11.5 mph - N/A   Overcast
5:35 PM 35.6 °F 26.2 °F 35.6 °F 100% 29.10 in 10.0 mi NW 15.0 mph 20.7 mph N/A   Overcast
5:55 PM 35.6 °F 26.6 °F 35.6 °F 100% 29.12 in 10.0 mi NW 13.8 mph - N/A   Overcast
6:15 PM 35.6 °F 27.5 °F 35.6 °F 100% 29.13 in 10.0 mi WNW 11.5 mph - N/A   Overcast
6:35 PM 35.6 °F 26.6 °F 35.6 °F 100% 29.14 in 10.0 mi WNW 13.8 mph - N/A   Overcast
6:55 PM 35.6 °F 27.5 °F 35.6 °F 100% 29.15 in 10.0 mi WNW 11.5 mph - N/A   Overcast
7:15 PM 35.6 °F 29.2 °F 35.6 °F 100% 29.16 in 10.0 mi West 8.1 mph - N/A   Overcast
7:35 PM 35.6 °F 29.2 °F 35.6 °F 100% 29.17 in 10.0 mi West 8.1 mph - N/A   Overcast
7:55 PM 33.8 °F 27.7 °F 33.8 °F 100% 29.19 in 10.0 mi West 6.9 mph - N/A   Overcast
8:15 PM 33.8 °F 25.8 °F 33.8 °F 100% 29.20 in 7.0 mi West 10.4 mph 16.1 mph N/A   Overcast
8:35 PM 33.8 °F 25.8 °F 33.8 °F 100% 29.21 in 5.0 mi West 10.4 mph - N/A   Overcast
8:55 PM 33.8 °F 25.8 °F 33.8 °F 100% 29.22 in 2.5 mi West 10.4 mph - N/A   Overcast
9:15 PM 33.8 °F 25.8 °F 32.0 °F 93% 29.24 in 2.0 mi West 10.4 mph - 0.01 in   Overcast
9:35 PM 33.8 °F 25.8 °F 32.0 °F 93% 29.25 in 2.5 mi West 10.4 mph - 0.01 in   Overcast
9:55 PM 32.0 °F 23.6 °F 32.0 °F 100% 29.26 in 2.0 mi WNW 10.4 mph - 0.02 in   Overcast
10:35 PM 32.0 °F 23.0 °F 32.0 °F 100% 29.28 in 1.0 mi NNW 11.5 mph - 0.01 in   Overcast
10:55 PM 32.0 °F 24.8 °F 32.0 °F 100% 29.30 in 1.0 mi NNW 8.1 mph - 0.02 in   Overcast
11:15 PM 30.2 °F 20.8 °F 30.2 °F 100% 29.32 in 1.8 mi North 11.5 mph - N/A   Overcast
11:35 PM 30.2 °F 20.8 °F 30.2 °F 100% 29.34 in 1.8 mi North 11.5 mph - N/A   Overcast
11:55 PM 30.2 °F 21.3 °F 30.2 °F 100% 29.35 in 1.2 mi NNW 10.4 mph - 0.01 in   Overcast